Big Rapids, MI

11:24 PM EDT on August 25, 2019 (GMT -0400)
Roben-Hood

Weather History for KRQB - May, 2019

Change the Weather History Date:

Sunday, May 12, 2019

  Actual Average Record
Temperature  
Mean Temperature 48 °F -  
Max Temperature 53 °F 66 °F 89 °F (1991)
Min Temperature 42 °F 41 °F 30 °F (1976)
Degree Days  
Heating Degree Days 18    
Moisture  
Dew Point 35 °F    
Average Humidity 63    
Maximum Humidity 81    
Minimum Humidity 54    
Precipitation  
Precipitation 0.00 in - - ()
Sea Level Pressure  
Sea Level Pressure 29.89 in    
Wind  
Wind Speed 3 mph (ENE)    
Max Wind Speed 10 mph    
Max Gust Speed 16 mph    
Visibility 10 miles    
Events      
Averages and records for this station are not official NWS values.
T = Trace of Precipitation, MM = Missing Value Source: NWS Daily Summary

Daily Weather History Graph

Daily Weather History Graph

Search for Another Location

Airport or City:

Astronomy

May. 12, 2019 Rise Set
Actual Time 6:20 AM EDT 8:57 PM EDT
Civil Twilight 5:47 AM EDT 9:29 PM EDT
Nautical Twilight 5:06 AM EDT 10:11 PM EDT
Astronomical Twilight 4:19 AM EDT 10:58 PM EDT
Moon 1:41 PM EDT (5/12) 3:17 AM EDT (5/12)
Length of Visible Light 15h 42m
Length of Day
14h 36m
First Quarter, 57% of the Moon is Illuminated
May 12
First Quarter
May 18
Full
May 26
Last Quarter
Jun 3
New
Jun 10
First Quarter

Hourly Weather History & Observations

Time (EDT) Temp. Windchill Dew Point Humidity Pressure Visibility Wind Dir Wind Speed Gust Speed Precip Events Conditions
12:15 AM 45.3 °F - 34.9 °F 67% 30.00 in 10.0 mi Calm Calm - N/A   Overcast
12:16 AM 45.1 °F - 34.7 °F 67% 30.00 in 10.0 mi Calm Calm - N/A   Overcast
12:35 AM 45.0 °F - 35.6 °F 70% 30.00 in 10.0 mi Calm Calm - N/A   Overcast
12:55 AM 44.8 °F - 36.1 °F 72% 30.00 in 10.0 mi Calm Calm - N/A   Overcast
1:15 AM 44.2 °F - 36.9 °F 75% 29.99 in 10.0 mi Calm Calm - N/A   Overcast
1:35 AM 44.1 °F - 36.7 °F 75% 29.98 in 10.0 mi Calm Calm - N/A   Overcast
1:36 AM 44.1 °F - 37.0 °F 76% 29.98 in 10.0 mi Calm Calm - N/A   Overcast
1:55 AM 43.9 °F - 38.5 °F 81% 29.97 in 10.0 mi Calm Calm - N/A   Overcast
2:15 AM 43.7 °F - 36.3 °F 75% 29.97 in 10.0 mi Calm Calm - N/A   Overcast
2:35 AM 43.7 °F - 36.1 °F 75% 29.96 in 10.0 mi Calm Calm - N/A   Overcast
2:36 AM 43.7 °F - 36.1 °F 75% 29.96 in 10.0 mi Calm Calm - N/A   Overcast
2:55 AM 43.9 °F 41.3 °F 36.5 °F 75% 29.96 in 10.0 mi ENE 4.6 mph - N/A   Overcast
2:56 AM 43.9 °F 41.3 °F 36.5 °F 75% 29.95 in 10.0 mi ENE 4.6 mph - N/A   Overcast
3:15 AM 44.1 °F 41.5 °F 33.1 °F 65% 29.95 in 10.0 mi East 4.6 mph - N/A   Overcast
3:35 AM 44.1 °F 40.8 °F 30.7 °F 59% 29.94 in 10.0 mi East 5.8 mph - N/A   Overcast
3:36 AM 44.1 °F 41.5 °F 30.6 °F 59% 29.94 in 10.0 mi East 4.6 mph - N/A   Overcast
3:55 AM 43.7 °F 40.3 °F 30.7 °F 60% 29.94 in 10.0 mi East 5.8 mph - N/A   Overcast
3:56 AM 43.7 °F 40.3 °F 30.6 °F 60% 29.94 in 10.0 mi East 5.8 mph - N/A   Overcast
4:15 AM 43.9 °F 39.9 °F 29.3 °F 57% 29.94 in 10.0 mi East 6.9 mph - N/A   Overcast
4:35 AM 43.7 °F 42.1 °F 29.3 °F 57% 29.94 in 10.0 mi ENE 3.5 mph - N/A   Overcast
4:55 AM 43.7 °F 41.1 °F 28.6 °F 55% 29.93 in 10.0 mi ENE 4.6 mph - N/A   Overcast
4:56 AM 43.7 °F 41.1 °F 28.6 °F 55% 29.93 in 10.0 mi ENE 4.6 mph - N/A   Overcast
5:15 AM 43.3 °F - 28.4 °F 56% 29.93 in 10.0 mi Calm Calm - N/A   Overcast
5:16 AM 43.3 °F - 28.4 °F 56% 29.93 in 10.0 mi Calm Calm - N/A   Overcast
5:35 AM 43.2 °F 40.5 °F 28.2 °F 56% 29.93 in 10.0 mi NE 4.6 mph - N/A   Overcast
5:55 AM 43.0 °F 41.3 °F 28.4 °F 56% 29.92 in 10.0 mi NE 3.5 mph - N/A   Overcast
5:56 AM 43.0 °F 40.3 °F 28.4 °F 56% 29.92 in 10.0 mi NE 4.6 mph - N/A   Overcast
6:15 AM 42.8 °F 41.1 °F 29.5 °F 59% 29.92 in 10.0 mi ENE 3.5 mph - N/A   Overcast
6:16 AM 42.8 °F 41.1 °F 29.5 °F 59% 29.92 in 10.0 mi ENE 3.5 mph - N/A   Overcast
6:35 AM 42.8 °F 41.1 °F 28.9 °F 58% 29.92 in 10.0 mi ENE 3.5 mph - N/A   Overcast
6:55 AM 42.8 °F - 29.3 °F 59% 29.92 in 10.0 mi Calm Calm - N/A   Overcast
7:15 AM 43.0 °F - 29.5 °F 59% 29.92 in 10.0 mi Calm Calm - N/A   Overcast
7:16 AM 43.0 °F - 29.5 °F 59% 29.92 in 10.0 mi Calm Calm - N/A   Overcast
7:35 AM 43.3 °F 41.7 °F 30.2 °F 60% 29.92 in 10.0 mi NE 3.5 mph - N/A   Overcast
7:36 AM 43.3 °F 41.7 °F 30.2 °F 60% 29.92 in 10.0 mi NE 3.5 mph - N/A   Overcast
7:55 AM 43.7 °F - 29.3 °F 57% 29.92 in 10.0 mi Calm Calm - N/A   Overcast
8:15 AM 43.7 °F 42.1 °F 29.5 °F 57% 29.93 in 10.0 mi NE 3.5 mph - N/A   Overcast
8:35 AM 43.7 °F 42.1 °F 30.2 °F 59% 29.92 in 10.0 mi ENE 3.5 mph - N/A   Overcast
8:36 AM 43.7 °F - 30.2 °F 59% 29.92 in 10.0 mi Calm Calm - N/A   Overcast
8:55 AM 43.9 °F 42.3 °F 30.4 °F 59% 29.93 in 10.0 mi ENE 3.5 mph - N/A   Overcast
9:15 AM 44.1 °F 41.5 °F 30.9 °F 60% 29.92 in 10.0 mi NNE 4.6 mph - N/A   Overcast
9:35 AM 44.8 °F 42.4 °F 31.6 °F 60% 29.92 in 10.0 mi NNE 4.6 mph - N/A   Overcast
9:36 AM 44.8 °F 42.4 °F 31.8 °F 60% 29.92 in 10.0 mi NNE 4.6 mph - N/A   Overcast
9:55 AM 45.5 °F 43.2 °F 32.0 °F 59% 29.92 in 10.0 mi NNE 4.6 mph - N/A   Overcast
9:56 AM 45.5 °F 43.2 °F 32.0 °F 59% 29.92 in 10.0 mi NNE 4.6 mph - N/A   Overcast
10:15 AM 45.7 °F 43.4 °F 32.2 °F 59% 29.92 in 10.0 mi NNE 4.6 mph - N/A   Overcast
10:16 AM 45.7 °F 43.4 °F 32.2 °F 59% 29.92 in 10.0 mi NNE 4.6 mph - N/A   Overcast
10:35 AM 46.4 °F 44.3 °F 33.3 °F 60% 29.92 in 10.0 mi NNE 4.6 mph - N/A   Overcast
10:55 AM 47.3 °F - 34.5 °F 61% 29.91 in 10.0 mi ENE 5.8 mph - N/A   Overcast
11:15 AM 48.0 °F - 34.9 °F 60% 29.91 in 10.0 mi NE 5.8 mph - N/A   Overcast
11:16 AM 48.2 °F - 34.9 °F 60% 29.91 in 10.0 mi NE 5.8 mph - N/A   Overcast
11:35 AM 49.1 °F - 35.8 °F 60% 29.90 in 10.0 mi NE 3.5 mph - N/A   Overcast
11:55 AM 50.2 °F - 36.7 °F 60% 29.89 in 10.0 mi NE 4.6 mph - N/A   Overcast
12:15 PM 51.1 °F - 36.9 °F 58% 29.89 in 10.0 mi NE 4.6 mph - N/A   Overcast
12:16 PM 51.1 °F - 36.7 °F 58% 29.89 in 10.0 mi ENE 3.5 mph - N/A   Overcast
12:35 PM 51.8 °F - 37.0 °F 57% 29.88 in 10.0 mi ENE 3.5 mph - N/A   Overcast
12:36 PM 51.8 °F - 37.0 °F 57% 29.88 in 10.0 mi ENE 3.5 mph - N/A   Overcast
12:55 PM 52.2 °F - 37.8 °F 58% 29.87 in 10.0 mi ENE 8.1 mph - N/A   Overcast
12:56 PM 52.2 °F - 37.8 °F 58% 29.87 in 10.0 mi East 8.1 mph - N/A   Overcast
1:15 PM 52.0 °F - 37.2 °F 57% 29.87 in 10.0 mi East 5.8 mph - N/A   Overcast
1:35 PM 52.5 °F - 38.1 °F 58% 29.87 in 10.0 mi ENE 4.6 mph - N/A   Overcast
1:36 PM 52.7 °F - 38.1 °F 58% 29.87 in 10.0 mi ENE 4.6 mph - N/A   Overcast
1:55 PM 52.3 °F - 37.4 °F 57% 29.86 in 10.0 mi NE 5.8 mph - N/A   Overcast
1:56 PM 52.3 °F - 37.4 °F 57% 29.86 in 10.0 mi NE 5.8 mph - N/A   Overcast
2:15 PM 52.5 °F - 37.4 °F 56% 29.86 in 10.0 mi ENE 5.8 mph - N/A   Overcast
2:35 PM 52.9 °F - 37.6 °F 56% 29.85 in 10.0 mi East 8.1 mph - N/A   Overcast
2:55 PM 53.6 °F - 37.2 °F 54% 29.85 in 10.0 mi East 6.9 mph 16.1 mph N/A   Overcast
3:15 PM 53.2 °F - 37.4 °F 55% 29.85 in 10.0 mi NE 5.8 mph - N/A   Overcast
3:16 PM 53.2 °F - 37.4 °F 55% 29.84 in 10.0 mi NE 5.8 mph - N/A   Overcast
3:35 PM 52.7 °F - 37.6 °F 56% 29.84 in 10.0 mi East 9.2 mph - N/A   Overcast
3:55 PM 52.7 °F - 37.6 °F 56% 29.84 in 10.0 mi ENE 4.6 mph - N/A   Overcast
4:15 PM 52.7 °F - 38.1 °F 58% 29.83 in 10.0 mi NE 5.8 mph - N/A   Overcast
4:16 PM 52.7 °F - 38.1 °F 58% 29.83 in 10.0 mi NE 6.9 mph - N/A   Overcast
4:35 PM 53.2 °F - 38.5 °F 57% 29.82 in 10.0 mi ENE 8.1 mph - N/A   Overcast
4:36 PM 53.2 °F - 38.3 °F 57% 29.82 in 10.0 mi ENE 6.9 mph - N/A   Overcast
4:55 PM 52.9 °F - 38.3 °F 58% 29.82 in 10.0 mi ENE 4.6 mph - N/A   Overcast
4:56 PM 52.9 °F - 38.3 °F 58% 29.82 in 10.0 mi ENE 5.8 mph - N/A   Overcast
5:15 PM 52.7 °F - 37.8 °F 57% 29.83 in 10.0 mi ENE 5.8 mph - N/A   Overcast
5:16 PM 52.7 °F - 37.9 °F 57% 29.83 in 10.0 mi ENE 5.8 mph - N/A   Overcast
5:35 PM 52.5 °F - 37.6 °F 57% 29.82 in 10.0 mi ENE 5.8 mph - N/A   Overcast
5:55 PM 52.3 °F - 37.6 °F 57% 29.83 in 10.0 mi East 9.2 mph - N/A   Overcast
5:56 PM 52.3 °F - 37.6 °F 57% 29.83 in 10.0 mi East 9.2 mph - N/A   Overcast
6:15 PM 52.0 °F - 37.4 °F 58% 29.83 in 10.0 mi East 10.4 mph - N/A   Overcast
6:16 PM 52.0 °F - 37.4 °F 58% 29.83 in 10.0 mi East 9.2 mph - N/A   Overcast
6:35 PM 51.3 °F - 37.6 °F 60% 29.83 in 10.0 mi ENE 8.1 mph - N/A   Overcast
6:55 PM 51.1 °F - 37.6 °F 60% 29.83 in 10.0 mi East 9.2 mph - N/A   Overcast
6:56 PM 51.1 °F - 37.8 °F 60% 29.83 in 10.0 mi East 9.2 mph - N/A   Overcast
7:15 PM 50.2 °F - 38.7 °F 65% 29.83 in 10.0 mi ENE 9.2 mph - N/A   Overcast
7:16 PM 50.2 °F - 38.5 °F 64% 29.83 in 10.0 mi ENE 9.2 mph - N/A   Overcast
7:35 PM 50.0 °F - 38.7 °F 65% 29.83 in 10.0 mi East 10.4 mph - N/A   Overcast
7:55 PM 49.3 °F - 38.7 °F 67% 29.84 in 10.0 mi East 8.1 mph - N/A   Overcast
8:15 PM 48.6 °F - 38.8 °F 69% 29.84 in 10.0 mi East 6.9 mph - N/A   Overcast
8:16 PM 48.6 °F - 39.0 °F 70% 29.84 in 10.0 mi East 5.8 mph - N/A   Overcast
8:35 PM 48.2 °F - 39.2 °F 71% 29.84 in 10.0 mi East 5.8 mph - N/A   Overcast
8:55 PM 47.5 °F - 39.7 °F 75% 29.84 in 10.0 mi East 3.5 mph - N/A   Overcast
9:15 PM 47.3 °F - 39.9 °F 76% 29.84 in 10.0 mi Calm Calm - N/A   Overcast
9:16 PM 47.3 °F - 39.7 °F 75% 29.84 in 10.0 mi Calm Calm - N/A   Overcast
9:35 PM 46.9 °F - 40.1 °F 77% 29.84 in 10.0 mi Calm Calm - N/A   Overcast
9:55 PM 46.8 °F - 40.5 °F 79% 29.84 in 10.0 mi Calm Calm - N/A   Overcast
10:15 PM 46.8 °F - 40.5 °F 79% 29.83 in 10.0 mi Calm Calm - N/A   Overcast
10:35 PM 46.4 °F - 40.3 °F 79% 29.83 in 10.0 mi Calm Calm - N/A   Overcast
10:36 PM 46.4 °F - 40.3 °F 79% 29.83 in 10.0 mi Calm Calm - N/A   Overcast
10:55 PM 46.8 °F - 40.1 °F 78% 29.84 in 10.0 mi NNE 3.5 mph - N/A   Overcast
10:56 PM 46.8 °F - 40.1 °F 78% 29.84 in 10.0 mi NNE 3.5 mph - N/A   Overcast
11:15 PM 47.1 °F - 39.7 °F 76% 29.84 in 10.0 mi NE 3.5 mph - N/A   Overcast
11:35 PM 47.3 °F - 39.2 °F 73% 29.84 in 10.0 mi NE 3.5 mph - N/A   Overcast
11:55 PM 47.1 °F - 39.2 °F 74% 29.83 in 10.0 mi ENE 3.5 mph - N/A   Overcast
11:56 PM 47.1 °F - 39.2 °F 74% 29.83 in 10.0 mi ENE 4.6 mph - N/A   Overcast